Regional Weather Roundup
Issued by NWS Green Bay, WI

Home | Current Version | Previous Version | Text Only | Print | Product List | Glossary On
Versions: 1 2 3 4 5 6 7 8 9 10 11 12 13 14 15 16 17 18 19 20 21 22 23 24 25 26 27 28 29 30 31 32 33 34 35 36 37 38 39 40 41 42 43 44 45 46 47 48 49 50
000
ASUS43 KGRB 031200
RWRGRB

NORTH-CENTRAL AND NORTHEAST WISCONSIN REGIONAL WEATHER ROUNDUP
NATIONAL WEATHER SERVICE GREEN BAY WI
700 AM CDT THU SEP 03 2015

WIZ005-009-010>012-018-019-031300-
NORTH CENTRAL WISCONSIN

CITY           SKY/WX    TMP DP  RH WIND       PRES   REMARKS
IRONWOOD       CLOUDY    57  57 100 CALM      29.97R VSB<1/4
MANITOWISH WTR NOT AVBL
ARBOR VITAE    NOT AVBL
EAGLE RIVER    NOT AVBL
LAND O LAKES   NOT AVBL
RHINELANDER    CLOUDY    64  62  93 NE5       30.00R
PHILLIPS       CLOUDY    64  63  99 CALM      29.99R
ANTIGO         NOT AVBL
TOMAHAWK       NOT AVBL
MERRILL        CLOUDY    65  65 100 NE6       29.98R
$$

WIZ013-073-031300-
NORTHEAST WISCONSIN

CITY           SKY/WX    TMP DP  RH WIND       PRES   REMARKS
IRON MOUNTAIN  CLOUDY    65  63  93 N8        29.96R FOG
MARINETTE      CLOUDY    66  63  88 NE9       29.91R
$$

WIZ017-030-035>037-045-031300-
CENTRAL WISCONSIN

CITY           SKY/WX    TMP DP  RH WIND       PRES   REMARKS
MEDFORD        NOT AVBL
WAUSAU         CLOUDY    66  64  93 CALM      29.95R
MOSINEE        CLOUDY    64  64 100 N6        29.97R FOG
MARSHFIELD     FOG       67  64  90 NE9       29.95R VSB 1/4
WISC RAPIDS    CLOUDY    68  65  90 NE7       29.95R FOG
STEVENS POINT  NOT AVBL
WAUPACA        NOT AVBL
SHAWANO        NOT AVBL
CLINTONVILLE   MOCLDY    66  64  94 N5        29.93R
WAUTOMA        PTCLDY    66  66 100 CALM      29.93R FOG
$$

WIZ038-039-048-051-031300-
FOX VALLEY

CITY           SKY/WX    TMP DP  RH WIND       PRES   REMARKS
NWS GREEN BAY  CLOUDY    69  67  93 W5        29.92R
APPLETON       CLOUDY    66  66 100 NW9       29.91R FOG
OSHKOSH        CLOUDY    71  68  90 N6        29.91R FOG
FOND DU LAC    CLOUDY    71  69  93 SW6       29.91S FOG
$$

WIZ022-050-052-031300-
EAST CENTRAL WISCONSIN

CITY           SKY/WX    TMP DP  RH WIND       PRES   REMARKS
EPHRAIM        DRIZZLE   65  65  99 E8        29.90S
STURGEON BAY   CLOUDY    64  63  94 CALM      29.92S VSB 1/4
MANITOWOC      NOT AVBL
SHEBOYGAN      CLOUDY    71  70  96 SW6       29.90S FOG
$$

LMZ563-521-522-541>543-031300-
LAKESHORE

STATION/POSITION TIME  TEMP    WIND        PRES    VSBY  WAVE
                       AIR SEA DIR/SP/G                  HT/PER
                 (UTC) (F)     (DEG/KT/KT) (MB)    (MI)  (FT/S)
SHEBOYGAN LKSHOR 1100   71     230/  8/  8 1012.2R
KEWAUNEE LKSHORE 1100   63     260/  1/  2 1010.8S
ALGOMA MARINA    1114             CALM       N/A
NORTHPORT PIER   1100   66     100/ 13/ 16 1012.2R
N MID LAKE BUOY  1050   67 66  100/ 17/ 21 1011.2F         3/ 5
S GREEN BAY BUOY 1100   67 66  330/  6/  8 1013.5R
SISTER BAY LKSHO 1111   66     110/ 10/ 13   N/A
CHAMBERS ISLAND  1100   66      30/  8/  9 1012.5R
MENOMINEE LKSHOR 1100   63      20/ 10/ 11 1011.3R
$$



USA.gov is the U.S. government's official web portal to all federal, state and local government web resources and services.